"Time","Temp","Dewpoint","Humidity","Pressure","Direction","Speed","Gust","Precip","PrecipRate"
"00:04:59","74.8","69.3","83","30.00","172","2.2","5","0.00","0.00"
"00:09:58","74.8","69.3","83","30.00","172","2.2","5","0.00","0.00"
"00:14:58","74.7","69.3","83.4","30.00","144","1.7","4","0.00","0.00"
"00:19:59","74.7","69.5","84","30.00","178","2.3","5","0.00","0.00"
"00:24:56","74.7","69.5","84","30.00","189","2.2","5","0.00","0.00"
"00:29:57","74.7","69.5","84","30.00","184","1.9","5","0.00","0.00"
"00:34:59","74.7","69.5","84","30.00","166","2.3","5","0.00","0.00"
"00:39:59","74.7","69.7","84.4","30.00","166","1.9","5","0.00","0.00"
"00:44:56","74.6","69.5","84.3","30.00","180","3","7","0.00","0.00"
"00:49:58","74.5","69.5","84.5","29.99","171","3","8","0.00","0.00"
"00:54:59","74.5","69.5","84.5","29.99","184","3.5","8.1","0.00","0.00"
"00:59:56","74.5","69.5","84.5","29.99","186","2.5","9.2","0.00","0.00"
"01:04:57","74.4","69.6","85","29.99","181","2","7","0.00","0.00"
"01:09:58","74.4","69.6","85","29.99","167","3.4","7","0.00","0.00"
"01:14:59","74.4","69.6","85","29.99","160","3.4","7","0.00","0.00"
"01:19:56","74.4","69.6","85","29.99","179","1.7","6","0.00","0.00"
"01:24:57","74.3","69.5","85","29.99","171","3.3","9.2","0.00","0.00"
"01:29:58","74.3","69.5","85","29.99","177","2.7","7","0.00","0.00"
"01:34:56","74.2","69.7","86","29.99","207","1.6","4.6","0.00","0.00"
"01:39:56","74.1","69.6","86","29.99","195","1.9","6","0.00","0.00"
"01:44:58","73.9","69.4","86","29.99","187","2.1","5","0.00","0.00"
"01:49:56","73.9","69.4","86","29.99","161","2.1","7","0.00","0.00"
"01:54:57","73.8","69.3","86","29.99","167","1.9","4","0.00","0.00"
"01:59:58","73.8","69.6","86.7","29.99","164","1.5","4","0.00","0.00"
"02:04:56","73.7","69.6","87","29.98","167","2.4","6","0.00","0.00"
"02:09:57","73.7","69.6","87","29.98","171","2.9","5","0.00","0.00"
"02:14:58","73.6","69.5","87","29.98","188","2.4","5","0.00","0.00"
"02:19:59","73.6","69.5","87","29.98","184","2.3","5","0.00","0.00"
"02:24:57","73.5","69.6","87.6","29.98","196","1.4","4","0.00","0.00"
"02:29:58","73.4","69.6","88","29.98","183","2","4","0.00","0.00"
"02:34:55","73.4","69.6","88","29.98","195","2.6","6","0.00","0.00"
"02:39:56","73.3","69.5","88","29.98","174","3.1","6","0.00","0.00"
"02:44:58","73.3","69.5","88","29.98","167","2.5","6","0.00","0.00"
"02:49:56","73.3","69.5","88","29.98","167","2.3","7","0.00","0.00"
"02:54:57","73.3","69.8","88.7","29.98","163","3","6","0.00","0.00"
"02:59:59","73.3","69.9","89","29.98","186","2.7","9.2","0.00","0.00"
"03:04:56","73.3","69.9","89","29.96","189","2.5","6","0.00","0.00"
"03:09:58","73.3","69.9","89","29.96","169","2.2","6.9","0.00","0.00"
"03:14:58","73.3","69.9","89","29.96","163","2.7","6","0.00","0.00"
"03:19:59","73.3","69.9","89","29.96","165","3.6","9","0.00","0.00"
"03:24:57","73.3","69.9","89","29.96","176","3.4","8.1","0.00","0.00"
"03:29:58","73.3","69.9","89","29.96","168","2.9","6.9","0.00","0.00"
"03:34:58","73.2","69.8","89","29.95","169","2.9","7","0.00","0.00"
"03:39:58","73.1","69.8","89.2","29.95","176","2.8","7","0.00","0.00"
"03:44:56","73.1","70","90","29.95","176","3.4","7","0.00","0.00"
"03:49:57","73","69.9","90","29.94","167","3.9","9.2","0.00","0.00"
"03:54:58","72.9","69.8","90","29.94","175","3.4","7","0.00","0.00"
"03:59:56","72.8","69.7","90.1","29.94","178","3.4","9.2","0.00","0.00"
"04:04:59","72.7","69.9","91","29.94","176","3.4","9.2","0.00","0.00"
"04:09:56","72.6","69.8","91","29.94","183","3.6","9.2","0.00","0.00"
"04:14:57","72.6","69.8","91","29.94","199","2.6","5","0.00","0.00"
"04:19:59","72.5","69.7","91","29.93","200","3.5","7","0.00","0.00"
"04:24:57","72.5","69.7","91","29.93","174","2.7","6","0.00","0.00"
"04:29:58","72.4","69.6","91","29.93","180","2.2","6","0.00","0.00"
"04:34:56","72.3","69.5","91","29.93","191","2.1","5.8","0.00","0.00"
"04:39:56","72.3","69.5","91","29.93","168","2","4","0.00","0.00"
"04:44:58","72.2","69.4","91","29.93","224","1.6","4","0.00","0.00"
"04:49:56","72.1","69.3","91","29.93","126","0.9","3","0.00","0.00"
"04:54:57","72.1","69.3","91","29.93","170","1.1","3.5","0.00","0.00"
"04:59:58","72","69.3","91.4","29.93","175","0.5","2.3","0.00","0.00"
"05:04:59","72","69.4","91.7","29.93","177","1.6","5","0.00","0.00"
"05:09:57","72","69.3","91.5","29.93","177","2.4","5","0.00","0.00"
"05:14:58","71.9","69.2","91.1","29.93","188","2.1","5","0.00","0.00"
"05:19:59","71.9","69.2","91.1","29.93","179","2","6","0.00","0.00"
"05:24:57","71.9","69.1","91","29.93","184","1.1","4","0.00","0.00"
"05:29:59","72","69.2","91.2","29.93","127","1.3","3.5","0.00","0.00"
"05:34:56","72","69.3","91.5","29.93","158","1.6","4","0.00","0.00"
"05:39:58","72","69.3","91.3","29.93","175","1","4","0.00","0.00"
"05:44:56","71.9","69.1","91","29.93","186","0.5","2.3","0.00","0.00"
"05:49:58","71.9","69.1","91","29.93","185","0.9","3","0.00","0.00"
"05:54:57","71.9","69.1","91","29.93","164","1.7","4","0.00","0.00"
"05:59:59","71.9","69.1","91","29.93","149","2","5","0.00","0.00"
"06:04:56","71.8","69.1","91.1","29.93","168","2.2","4.6","0.00","0.00"
"06:09:58","71.8","69","91.1","29.93","167","1.1","5","0.00","0.00"
"06:14:57","71.8","69","91","29.93","151","2.9","6","0.00","0.00"
"06:19:55","71.8","69","91","29.93","152","1.6","5","0.00","0.00"
"06:24:58","71.8","69","91","29.93","153","1.5","4","0.00","0.00"
"06:29:57","71.7","69.1","91.4","29.94","149","1.6","3.5","0.00","0.00"
"06:34:59","71.7","69.3","92","29.94","189","2.5","5","0.00","0.00"
"06:39:56","71.7","69.3","92","29.94","200","1.4","4","0.00","0.00"
"06:44:57","71.8","69.3","92","29.94","170","2.3","4","0.00","0.00"
"06:49:59","71.8","69.3","92","29.94","182","0.8","3.5","0.00","0.00"
"06:54:57","71.8","69.3","92","29.94","188","1.4","3.5","0.00","0.00"
"06:59:58","71.9","69.4","92","29.95","284","1.3","3.5","0.00","0.00"
"07:04:59","71.9","69.4","92","29.95","284","1","3.5","0.00","0.00"
"07:09:57","72","69.5","92","29.95","256","1.7","3.5","0.00","0.00"
"07:14:57","72","69.5","92","29.96","205","0.9","3.5","0.00","0.00"
"07:19:59","72","69.5","92","29.96","205","0.9","4","0.00","0.00"
"07:24:56","72","69.5","92","29.96","203","1.4","3.5","0.00","0.00"
"07:29:58","72.1","69.6","92","29.96","199","1.8","3.5","0.00","0.00"
"07:34:58","72.2","69.7","92","29.96","199","1.5","4","0.00","0.00"
"07:39:59","72.3","69.8","92","29.96","200","1.4","4","0.00","0.00"
"07:44:53","72.4","69.9","92","29.96","205","2.1","4","0.00","0.00"
"07:49:59","72.5","70","92","29.96","199","1.7","4","0.00","0.00"
"07:54:56","72.7","70.2","92","29.96","183","1.3","4","0.00","0.00"
"07:59:56","72.9","70.3","91.6","29.96","178","2.2","4","0.00","0.00"
"08:04:57","73","70.2","91","29.96","177","1.5","3.5","0.00","0.00"
"08:09:59","73.1","70.3","91","29.96","181","1.2","4","0.00","0.00"
"08:14:56","73.2","70.3","90.6","29.96","161","2","4","0.00","0.00"
"08:19:57","73.3","70.3","90.3","29.95","158","1.9","4","0.00","0.00"
"08:24:58","73.3","70.3","90.3","29.95","149","1.8","4","0.00","0.00"
"08:29:59","73.4","70.6","91","29.95","156","1.5","3.5","0.00","0.00"
"08:34:56","73.5","70.7","91","29.95","159","1.2","3.5","0.00","0.00"
"08:39:56","73.7","70.8","90.9","29.95","161","1.4","4","0.00","0.00"
"08:44:58","73.9","70.8","90","29.95","183","1.9","4","0.00","0.00"
"08:49:59","74.1","71","90","29.95","183","1.1","3.5","0.00","0.00"
"08:54:57","74.4","71.3","90","29.95","179","1.7","4","0.00","0.00"
"08:59:58","74.7","71.2","89.1","29.95","167","1.8","5","0.00","0.00"
"09:04:55","74.9","71.4","88.8","29.95","168","1.7","4","0.00","0.00"
"09:09:57","75.2","71.6","88.8","29.95","170","1.5","4","0.00","0.00"
"09:14:59","75.4","71.6","88.1","29.95","196","2.2","5","0.00","0.00"
"09:19:56","75.5","71.7","88","29.95","185","1.9","4","0.00","0.00"
"09:24:58","75.7","71.8","87.7","29.95","177","2.3","5","0.00","0.00"
"09:29:59","76","72","87.5","29.95","169","1.8","4","0.00","0.00"
"09:34:56","76.3","72.1","87.2","29.95","173","2","5","0.00","0.00"
"09:39:57","76.5","72.3","86.7","29.95","192","3.1","6","0.00","0.00"
"09:44:58","76.7","72.2","86","29.95","188","2.5","5","0.00","0.00"
"09:49:59","76.9","72.4","86.1","29.95","162","2.5","5","0.00","0.00"
"09:54:56","77.3","72.7","85.7","29.95","174","2.5","5","0.00","0.00"
"09:59:58","77.7","72.7","84.7","29.95","184","2.9","5","0.00","0.00"
"10:04:58","77.9","73","84.7","29.94","172","2.4","5","0.00","0.00"
"10:09:59","78.1","72.7","83.4","29.94","169","3.8","9","0.00","0.00"
"10:14:55","78.4","73","83.5","29.94","180","3.6","9.2","0.00","0.00"
"10:19:57","78.6","73.2","83.4","29.93","157","2.9","6.9","0.00","0.00"
"10:24:56","79","73.5","83.3","29.93","158","2.3","6","0.00","0.00"
"10:29:56","79.4","73.6","82.5","29.93","166","3","6","0.00","0.00"
"10:34:57","79.7","73.7","82.1","29.93","191","3","6","0.00","0.00"
"10:39:56","79.8","73.4","81","29.93","183","3","7","0.00","0.00"
"10:44:56","80","73.7","81.3","29.94","198","3.6","6.9","0.00","0.00"
"10:49:56","80.4","74","81.1","29.94","190","2.6","6","0.00","0.00"
"10:54:56","80.8","74.3","80.7","29.94","188","3","5","0.00","0.00"
"10:59:56","81.1","74.1","79.3","29.94","191","3.5","6","0.00","0.00"
"11:04:57","81.3","74.4","79.5","29.94","178","2.7","5.8","0.00","0.00"
"11:09:58","81.6","74.2","78.2","29.94","184","2.8","5","0.00","0.00"
"11:14:59","81.8","74.5","78.6","29.94","185","2","5","0.00","0.00"
"11:19:58","82.2","74.6","78","29.94","154","2.7","7","0.00","0.00"
"11:24:58","82.5","74.6","77.1","29.94","171","3.2","6.9","0.00","0.00"
"11:29:58","82.7","74.9","77.3","29.94","173","3.7","6","0.00","0.00"
"11:34:58","83.1","75","76.7","29.93","181","3.4","7","0.00","0.00"
"11:39:57","83.4","74.8","75.5","29.93","174","2.8","5.8","0.00","0.00"
"11:44:58","83.7","75","75.3","29.94","168","3.1","7","0.00","0.00"
"11:49:58","84","75","74.4","29.94","170","2.9","7","0.00","0.00"
"11:54:58","84.5","75.3","74","29.94","167","3.7","7","0.00","0.00"
"11:59:58","85","75.6","73.5","29.94","208","3.8","10.4","0.00","0.00"
"12:04:58","85.2","75.1","71.9","29.93","185","3.1","7","0.00","0.00"
"12:09:59","85.6","75.3","71.6","29.93","184","4.2","11.5","0.00","0.00"
"12:14:58","85.9","75.1","70.2","29.94","179","4.1","9","0.00","0.00"
"12:19:57","85.9","75.3","70.8","29.94","178","4.9","10","0.00","0.00"
"12:24:57","85.8","74.9","70.1","29.94","202","4.7","13","0.00","0.00"
"12:29:57","85.8","74.9","70.1","29.94","183","4.4","12","0.00","0.00"
"12:34:57","85.9","74.7","69.5","29.93","188","4","9","0.00","0.00"
"12:39:56","86","74.7","69.2","29.93","231","4.3","7","0.00","0.00"
"12:44:56","86.1","75","69.5","29.93","188","4.4","9.2","0.00","0.00"
"12:49:56","86.4","75.3","69.5","29.93","181","3.2","6","0.00","0.00"
"12:54:56","86.6","75.1","68.6","29.93","197","3","7","0.00","0.00"
"12:59:56","86.6","74.9","68.3","29.93","204","2.2","5","0.00","0.00"
"13:04:56","86.4","74.8","68.6","29.93","187","3.5","10.4","0.00","0.00"
"13:09:58","86","74.2","68","29.93","190","4.1","9.2","0.00","0.00"
"13:14:58","85.8","73.9","67.7","29.93","196","3.6","8","0.00","0.00"
"13:19:58","85.6","73.6","67.3","29.92","195","3.1","8.1","0.00","0.00"
"13:24:58","85.7","74.1","68.4","29.92","187","2","5","0.00","0.00"
"13:29:58","86","74.3","68.3","29.92","220","2.4","5","0.00","0.00"
"13:34:56","86.5","74.6","67.7","29.92","214","4","8.1","0.00","0.00"
"13:39:56","86.9","74.1","65.8","29.92","199","3.5","6","0.00","0.00"
"13:44:57","86.9","74.2","66","29.92","190","3.3","8","0.00","0.00"
"13:49:57","86.8","74","65.8","29.92","224","3.3","6.9","0.00","0.00"
"13:54:57","86.8","74.7","67.6","29.92","188","3","6","0.00","0.00"
"13:59:57","87.1","75","67.3","29.92","186","3.5","8.1","0.00","0.00"
"14:04:58","87.3","75","66.9","29.92","248","2.5","5.8","0.00","0.00"
"14:09:55","87.5","74.5","65.6","29.92","224","3.5","7","0.00","0.00"
"14:14:55","87.8","75","66.1","29.92","193","2.5","5.8","0.00","0.00"
"14:19:55","88.6","75.7","65.9","29.91","201","3.6","7","0.00","0.00"
"14:24:55","89.1","75.4","64.1","29.91","230","2.6","5.8","0.00","0.00"
"14:29:56","89.3","75.6","64.1","29.91","232","3","6","0.00","0.00"
"14:34:56","89.6","75.4","63.1","29.90","214","1.5","4","0.00","0.00"
"14:39:56","89.9","75.4","62.5","29.90","187","1.9","9","0.00","0.00"
"14:44:56","89.8","74.6","61.2","29.90","194","3.1","9.2","0.00","0.00"
"14:49:56","89.2","74.8","62.8","29.90","193","3","5","0.00","0.00"
"14:54:56","88.8","74.6","63","29.90","197","3.7","9.2","0.00","0.00"
"14:59:57","88.6","75.3","65","29.90","211","2.7","5","0.00","0.00"
"15:04:57","88.7","75.4","65.1","29.90","233","3","6","0.00","0.00"
"15:09:59","88.7","75.1","64.4","29.90","198","2.2","5.8","0.00","0.00"
"15:14:59","88.7","74.9","63.9","29.90","187","3.7","7","0.00","0.00"
"15:19:59","88.5","75.1","64.6","29.89","226","2.5","5.8","0.00","0.00"
"15:24:59","88.4","75.1","64.9","29.89","202","3.6","9.2","0.00","0.00"
"15:29:59","88.5","75.5","65.6","29.89","195","3.1","8.1","0.00","0.00"
"15:34:59","88.7","75.2","64.6","29.89","182","3.1","6","0.00","0.00"
"15:39:59","89","76.3","66.3","29.89","196","2.6","7","0.00","0.00"
"15:44:56","89.5","75.9","64.3","29.89","171","4","11.5","0.00","0.00"
"15:49:59","89.2","75.3","63.8","29.89","162","3.4","10.4","0.00","0.00"
"15:54:59","88.9","75.2","64.2","29.89","178","3.6","10.4","0.00","0.00"
"15:59:59","88.9","75.8","65.4","29.89","185","3.9","9","0.00","0.00"
"16:04:55","89.5","75.9","64.4","29.89","175","4.2","9.2","0.00","0.00"
"16:09:57","90","76.4","64.4","29.89","225","3.9","7","0.00","0.00"
"16:14:57","89.7","75.6","63.3","29.89","216","2.4","5","0.00","0.00"
"16:19:58","89.3","75.5","64","29.89","213","1.8","5","0.00","0.00"
"16:24:58","89.1","75.4","64.1","29.89","200","3.7","9","0.00","0.00"
"16:29:58","89.3","75.9","65","29.89","237","3.7","7","0.00","0.00"
"16:34:59","89.1","75.2","63.7","29.88","224","3.2","7","0.00","0.00"
"16:39:59","89","75.2","64","29.88","211","3.1","10","0.00","0.00"
"16:44:59","89.2","75.6","64.5","29.88","198","4.3","10.4","0.00","0.00"
"16:49:59","89.8","75.9","63.8","29.87","193","3.7","9","0.00","0.00"
"16:54:56","89.9","75.9","63.6","29.87","196","4.5","10.4","0.00","0.00"
"16:59:56","89.7","75.7","63.8","29.87","164","2.2","6","0.00","0.00"
"17:04:57","89.7","75.4","63","29.87","187","4.1","7","0.00","0.00"
"17:09:58","90","75.5","62.7","29.87","191","2.9","10","0.00","0.00"
"17:14:58","90.3","75.6","62","29.87","213","3.4","10.4","0.00","0.00"
"17:19:58","90.5","75.5","61.6","29.87","196","3.6","9.2","0.00","0.00"
"17:24:59","90.3","75.1","61.2","29.87","186","3.2","7","0.00","0.00"
"17:29:59","89.9","75","61.8","29.87","189","4.7","8.1","0.00","0.00"
"17:34:59","89.5","74.8","62.2","29.86","192","4.1","9.2","0.00","0.00"
"17:39:58","89.3","75.3","63.5","29.86","149","3","6","0.00","0.00"
"17:44:58","89.3","74.9","62.7","29.86","181","4","11","0.00","0.00"
"17:49:59","89.2","75.2","63.5","29.86","180","3.2","7","0.00","0.00"
"17:54:59","89.5","75.7","64","29.86","187","3.8","10.4","0.00","0.00"
"17:59:56","89.5","75.4","63.2","29.87","175","2.8","6","0.00","0.00"
"18:04:57","89.5","75.4","63.3","29.87","189","4.3","11.5","0.00","0.00"
"18:09:58","89.8","75.4","62.7","29.87","215","2.9","6","0.00","0.00"
"18:14:58","90","75.5","62.6","29.87","209","3.2","6","0.00","0.00"
"18:19:58","90.1","75.8","62.9","29.86","211","2.2","5.8","0.00","0.00"
"18:24:58","90.3","75.6","62.3","29.86","185","3.7","6","0.00","0.00"
"18:29:59","90.2","75.8","62.8","29.86","166","2.6","5.8","0.00","0.00"
"18:34:59","89.9","75.2","62.2","29.86","185","3.4","10.4","0.00","0.00"
"18:39:59","89.5","75.2","63","29.86","176","3.1","5.8","0.00","0.00"
"18:44:56","89.2","75","63.2","29.86","190","3.4","10","0.00","0.00"
"18:49:57","88.7","74.8","63.6","29.86","211","3.7","9","0.00","0.00"
"18:54:58","88.5","74.9","64.3","29.86","205","4","9.2","0.00","0.00"
"18:59:59","88.3","74.8","64.5","29.86","174","3.2","6","0.00","0.00"
"19:04:59","88.1","75.1","65.5","29.86","170","2.5","7","0.00","0.00"
"19:09:56","88","74.9","65.4","29.86","187","3.9","12","0.00","0.00"
"19:14:57","87.8","74.8","65.6","29.86","192","3.4","11.5","0.00","0.00"
"19:19:57","87.6","74.8","66","29.86","188","2.9","6","0.00","0.00"
"19:24:57","87.4","74.9","66.6","29.86","218","1.8","4.6","0.00","0.00"
"19:29:58","87.2","74.8","66.7","29.86","213","2.2","6","0.00","0.00"
"19:34:58","87","74.6","66.8","29.86","201","2.9","6","0.00","0.00"
"19:39:58","86.8","74.5","67","29.86","186","2.4","5","0.00","0.00"
"19:44:56","86.6","74.4","67.2","29.86","149","2.1","5","0.00","0.00"
"19:49:57","86.4","74.6","68","29.86","168","1.8","4","0.00","0.00"
"19:54:56","86.1","74.3","68","29.86","198","2.5","6","0.00","0.00"
"19:59:56","85.9","74.1","68","29.86","189","2.3","5","0.00","0.00"
"20:04:58","85.7","74","68.2","29.86","198","1.9","4.6","0.00","0.00"
"20:09:58","85.6","74.1","68.5","29.86","196","1.6","5","0.00","0.00"
"20:14:58","85.4","73.7","68.2","29.87","185","2.2","5","0.00","0.00"
"20:19:57","85.3","74","69","29.87","185","1.5","4","0.00","0.00"
"20:24:59","85.2","73.9","69","29.87","186","1.5","3.5","0.00","0.00"
"20:29:58","85.1","73.8","69","29.87","186","1.5","4","0.00","0.00"
"20:34:55","84.9","73.7","69.4","29.87","179","2.3","5","0.00","0.00"
"20:39:56","84.7","73.9","70.1","29.87","174","1.8","4.6","0.00","0.00"
"20:44:58","84.6","74.2","71","29.87","178","0.5","2.3","0.00","0.00"
"20:49:59","84.4","74.2","71.5","29.87","177","1.4","5","0.00","0.00"
"20:54:56","84.1","74.2","72.1","29.87","211","3.1","6","0.00","0.00"
"20:59:57","83.9","74.3","73","29.87","192","3.2","7","0.00","0.00"
"21:04:58","83.8","74.3","73.3","29.87","180","3.6","6.9","0.00","0.00"
"21:09:56","83.8","74.4","73.5","29.87","191","3.7","9.2","0.00","0.00"
"21:14:56","83.7","74.5","74","29.88","189","2.1","5","0.00","0.00"
"21:19:56","83.5","74.3","74","29.88","200","1.9","4","0.00","0.00"
"21:24:58","83.2","74.2","74.3","29.88","182","2.3","6","0.00","0.00"
"21:29:59","83","74.3","75","29.88","184","3.3","9.2","0.00","0.00"
"21:34:55","82.9","74.2","75","29.88","187","3.9","9","0.00","0.00"
"21:39:59","82.7","74","75.1","29.88","182","3.1","9.2","0.00","0.00"
"21:44:56","82.5","74.2","76","29.88","195","3.6","7","0.00","0.00"
"21:49:56","82.3","74.1","76.4","29.88","210","3.2","7","0.00","0.00"
"21:54:58","82.1","74.2","77","29.88","207","2","4","0.00","0.00"
"21:59:59","81.9","74","77.2","29.89","184","2.3","5","0.00","0.00"
"22:04:59","81.7","74.2","78","29.89","200","2.8","6","0.00","0.00"
"22:09:58","81.5","74.2","78.6","29.89","199","2.2","5","0.00","0.00"
"22:14:58","81.3","74.2","79","29.89","201","1.9","5","0.00","0.00"
"22:19:59","81.1","74.2","79.8","29.89","185","1.7","4","0.00","0.00"
"22:24:56","80.9","74.1","80","29.89","182","1.3","2.3","0.00","0.00"
"22:29:57","80.7","74","80","29.90","196","1.3","4","0.00","0.00"
"22:34:58","80.5","74.1","81","29.90","211","2.1","5","0.00","0.00"
"22:39:58","80.3","74.1","81.5","29.90","195","1.9","4","0.00","0.00"
"22:44:59","80.2","74.2","82","29.90","189","2.5","7","0.00","0.00"
"22:49:56","80.1","74.4","82.9","29.90","193","1.8","4","0.00","0.00"
"22:54:58","79.9","74.3","83","29.90","194","0.7","3.5","0.00","0.00"
"22:59:59","79.7","74.1","83.2","29.90","194","0.8","3.5","0.00","0.00"
"23:04:56","79.5","74.2","84","29.90","194","1.2","4","0.00","0.00"
"23:09:58","79.4","74.1","84","29.90","196","0.8","3.5","0.00","0.00"
"23:14:58","79.3","74","84","29.90","196","0","0","0.00","0.00"
"23:19:55","79.2","73.9","84","29.90","198","0.1","2","0.00","0.00"
"23:24:56","79","73.7","84","29.90","198","1.3","4","0.00","0.00"
"23:29:58","79","73.7","84","29.90","198","0.9","2.3","0.00","0.00"
"23:34:56","78.9","73.8","84.2","29.90","198","0.6","2.3","0.00","0.00"
"23:39:56","78.8","73.7","84.5","29.90","198","0.6","3.5","0.00","0.00"
"23:44:59","78.7","73.8","85","29.90","198","0.1","2.3","0.00","0.00"
"23:49:58","78.6","73.7","85","29.90","198","0","0","0.00","0.00"
"23:54:55","78.5","73.6","85","29.90","198","0","0","0.00","0.00"
"23:59:58","78.4","73.5","85","29.90","198","0","0","0.00","0.00"
